Current Weather Conditions: station 62114

sailwx.info

See reports from other nearby stations

no recent reports received from weather station ID 62114

Tides Pressure Air temp Water temp Dewpoint Dewpoint depression Visibility Wind speed Wind direction Waves Ship positions
date/time (UTC)wind fromknots sea level pressurealtimeterstation pressurevisibilityair tempwater tempwave heightnotes
2014-Jul-26 13:00 150 6 16.8
2014-Jul-26 12:00 140 8 17.0
2014-Jul-26 11:00 130 9 16.2
2014-Jul-26 10:00 140 9 14.9
2014-Jul-26 09:00 120 7 14.8
2014-Jul-26 08:00 110 6 13.8
2014-Jul-26 06:00 150 3 13.6
2014-Jul-26 05:00 130 4 13.5
2014-Jul-26 04:00 140 4 13.7
2014-Jul-26 03:00 160 4 14.2
2014-Jul-26 02:00 180 5 14.6
2014-Jul-26 01:00 150 4 14.6
2014-Jul-26 00:00 150 6 14.8
2014-Jul-25 23:00 150 5 14.5
2014-Jul-25 22:00 140 5 14.3
2014-Jul-25 21:00 150 4 14.7
2014-Jul-25 20:00 150 4 15.3
2014-Jul-25 19:00 160 5 15.5
2014-Jul-25 18:00 160 4 15.6
2014-Jul-25 17:00 160 4 15.8
2014-Jul-25 16:00 180 5 16.0
2014-Jul-25 15:00 150 6 16.1
2014-Jul-25 14:00 130 6 16.2
2014-Jul-25 13:00 110 5 18.2
2014-Jul-25 12:00 100 6 18.2
2014-Jul-25 11:00 100 6 16.8
2014-Jul-25 10:00 080 7 15.8
2014-Jul-25 09:00 080 6 15.8
2014-Jul-25 08:00 060 6 16.2
2014-Jul-25 07:00 060 4 15.7
2014-Jul-25 06:00 070 5 15.7
2014-Jul-25 05:00 060 7 15.7
2014-Jul-25 04:00 050 9 16.7
2014-Jul-25 03:00 050 10 17.8
2014-Jul-25 02:00 030 9 19.1
2014-Jul-25 01:00 040 10 18.8
2014-Jul-25 00:00 030 12 18.4
2014-Jul-24 23:00 030 10 17.5
2014-Jul-24 22:00 030 12 17.9
2014-Jul-24 21:00 030 10 17.6
2014-Jul-24 20:00 040 9 18.4
2014-Jul-24 19:00 040 10 19.7
2014-Jul-24 18:00 030 7 18.7
2014-Jul-24 17:00 040 6 18.3
2014-Jul-24 16:00 050 6 18.4
2014-Jul-24 15:00 060 6 17.5